METEOR 2-11 DEB, 43309

Orbit data source: Space-Track

METEOR 2-11 DEB, 43309 is space debris in LEO originally from a launch on Thu, 05 Jul 1984 UTC launched from the Plesetsk Missile And Space Complex (PKMTR). Debris objects in space refer to the collection of defunct objects orbiting the Earth. Examples of debris include non-operational satellites, rocket bodies, and fragments generated from explosions, collisions, or faulty payload assembly.

Loading next visibility...
Identifier
43309, 1984-072U
Orbit
LEO
Country
Flag of CISCIS
Related business
Manufacturer
Unknown
Mission
Spacecraft
Bus & Motor
Unknown
Mass
Unknown
Launch date (UTC)
1984-07-05 (41 years ago)
Launch vehicle
Unknown
Launch site
Plesetsk Missile And Space Complex (PKMTR)
Object type
Payload
Rocket body
Debris
Shape & HBR
Unknown shape, 0.1 m
Radar Cross Section
Small (<0.1 m²)

Expand to show TLE details & history
Last TLE update: 3 days ago

TLE from 3 days ago
0 METEOR 2-11 DEB
1 43309U 84072U   25346.21681547  .00004105  00000-0  28378-2 0  9994
2 43309  82.5272 161.7610 0028537 160.0687 200.1603 13.98679126537157
Epoch: 2025-12-12T05:12Z
TLE epoch observation values (Epoch: 2025-12-12T05:12:12.856Z)
Latitude
-0.00004°
Longitude
2.54581°
Altitude
920.798 km
Speed
7.382 km/s
True Right ascension
10h 47m 02s
True Declination
0° 00' 00"
Sunlit
Object was in daylight at epoch
Visualization orbit readout
Latitude
Unknown
Longitude
Unknown
Altitude
Unknown
Speed
Unknown
Apparent Right ascension
Unknown
Apparent Declination
Unknown
Sunlit
N/A
Visualization observer readout
Local Sidereal Time
04:09:59
Azimuth
Unknown
Elevation
Unknown
Doppler factor
Unknown
Orbital elements
Apogee altitude
916.262 km
Perigee altitude
874.748 km
Semi-major axis
7,273.642 km
Eccentricity
0.00285
Inclination
82.5272°
RAAN
161.761°
Arg. of periapsis
160.0687°
True anomaly
200.04797°
Mean anomaly
200.1603°
Eccentric anomaly
200.1041°
Mean motion
3.49877 °/min
Orbital period
102.89 mins
BSTAR
0.0028378
Loading maneuver chart data...
Computing Atmospheric mass density...
Loading historical data...
Loading historical data...
Loading historical data...
Loading historical data...
Loading historical data...
Loading historical data...
Loading historical data...

Documentation

Showing up to 5 results
|